YN1GRE-3 Weather Reports


time (UTC)temp
F
wind
direction
speed
knots
gust
knots
rain 1hr
in
rain 24hr
in
rain mn
in
humidity
%
barometer
mb
20260502232659 85 100 7.0 0.0 0.00 0.00 0.00 79 1009.0
20260502231158 86 100 7.0 0.0 0.00 0.00 0.00 79 1009.0
20260502225657 87 100 7.8 0.0 0.00 0.00 0.00 79 1009.0
20260502220736 79 90 9.6 0.0 0.00 0.00 0.00 79 1009.0
20260502215235 80 90 9.6 0.0 0.00 0.00 0.00 79 1009.0
20260502212023 81 90 9.6 0.0 0.00 0.00 0.00 79 1009.0
20260502210522 82 90 9.6 0.0 0.00 0.00 0.00 79 1009.0
20260502205022 83 90 9.6 0.0 0.00 0.00 0.00 79 1009.0
20260502203521 84 90 9.6 0.0 0.00 0.00 0.00 79 1009.0
20260502202021 85 90 9.6 0.0 0.00 0.00 0.00 79 1009.0
20260502200520 86 90 9.6 0.0 0.00 0.00 0.00 79 1009.0
20260502195020 87 90 9.6 0.0 0.00 0.00 0.00 79 1009.0
20260502193519 81 90 9.6 0.0 0.00 0.00 0.00 79 1010.0
20260502192019 82 100 4.3 0.0 0.00 0.00 0.00 79 1010.0
20260502190517 83 100 5.2 0.0 0.00 0.00 0.00 79 1010.0
20260502185016 84 100 5.2 0.0 0.00 0.00 0.00 79 1010.0
20260502161340 83 100 4.3 0.0 0.00 0.00 0.00 89 1012.0
20260502151339 83 90 4.3 0.0 0.00 0.00 0.00 94 1011.0
20260502120701 74 41 2.6 4.3 0.00 0.00 0.00 86 1011.0
20260502115201 75 41 2.6 4.3 0.00 0.00 0.00 86 1011.0
20260502113700 76 41 2.6 4.3 0.00 0.00 0.00 86 1011.0
20260502112200 72 54 2.6 3.5 0.00 0.00 0.00 87 1010.0
20260502110659 72 54 2.6 3.5 0.00 0.00 0.00 87 1010.0
20260502105158 72 54 2.6 3.5 0.00 0.00 0.00 87 1010.0
20260502101948 72 71 3.5 4.3 0.00 0.00 0.00 87 1010.0
20260502100447 72 71 3.5 4.3 0.00 0.00 0.00 87 1010.0
20260502090233 71 78 3.5 5.2 0.00 0.00 0.00 86 1010.0
20260502071520 72 84 3.5 5.2 0.00 0.00 0.00 86 1010.0
20260502070019 72 84 3.5 5.2 0.00 0.00 0.00 86 1010.0
20260502064518 72 84 3.5 5.2 0.00 0.00 0.00 86 1010.0
20260502063018 73 89 4.3 6.1 0.00 0.00 0.00 86 1010.0
20260502061517 74 89 4.3 6.1 0.00 0.00 0.00 86 1011.0
20260502054306 73 88 4.3 6.1 0.00 0.00 0.00 86 1011.0
20260502052806 74 88 4.3 6.1 0.00 0.00 0.00 86 1011.0
20260502051306 73 88 4.3 6.1 0.00 0.00 0.00 86 1011.0
20260502045804 74 88 4.3 6.1 0.00 0.00 0.00 86 1011.0
20260502044303 73 88 4.3 6.1 0.00 0.00 0.00 86 1011.0
20260502041053 72 95 4.3 7.0 0.00 0.00 0.00 86 1011.0
20260502035553 72 95 4.3 7.0 0.00 0.00 0.00 86 1011.0
20260502034052 72 95 4.3 7.0 0.00 0.00 0.00 86 1011.0
20260502032552 72 90 5.2 12.2 0.00 0.00 0.00 85 1011.0
20260502031051 72 90 5.2 12.2 0.00 0.00 0.00 85 1011.0
20260502025551 72 90 5.2 12.2 0.00 0.00 0.00 85 1011.0
20260502024051 74 80 9.6 0.0 0.00 0.00 0.00 84 1011.0
20260502020839 75 80 9.6 0.0 0.00 0.00 0.00 84 1010.0
20260502015338 76 80 9.6 0.0 0.00 0.00 0.00 84 1010.0
20260502013838 77 80 9.6 0.0 0.00 0.00 0.00 84 1010.0
20260502012337 78 80 9.6 0.0 0.00 0.00 0.00 84 1009.0
20260502010837 79 80 9.6 0.0 0.00 0.00 0.00 84 1009.0
20260502005335 80 80 9.6 0.0 0.00 0.00 0.00 84 1009.0
20260502003835 81 80 9.6 0.0 0.00 0.00 0.00 84 1009.0
20260502002335 82 80 9.6 0.0 0.00 0.00 0.00 84 1008.0
20260502000834 83 80 9.6 0.0 0.00 0.00 0.00 84 1008.0
20260501235334 84 80 9.6 0.0 0.00 0.00 0.00 84 1008.0